Location: Leuk
(46.3174°N, 7.6341°E)
Time: 18:15:32
(UTC+00:00)

Cosmos 1745 Rocket - Pass Details

Date: 09 March 2021
Orbit: 954 x 997 km, 83.0° (Epoch: 14 April)

Event Time Altitude Azimuth Distance (km) Brightness Sun altitude
Rises 03:17:00 0° 348° (NNW) 3,699 7.2 -27.3°
Reaches altitude 10° 03:19:32 10° 346° (NNW) 2,753 6.5 -26.9°
Maximum altitude 03:25:46 65° 267° (W) 1,087 3.9 -25.9°
Enters shadow 03:26:29 60° 232° (SW) 1,126 3.9 -25.8°
